Location: Newark
(44.3100°N, 0.7769°W)
Time: 16:49:08
(UTC+00:00)

Envisat - Pass Details

Date: 27 November 2019
Orbit: 764 x 766 km, 98.1° (Epoch: 10 December)

Event Time Altitude Azimuth Distance (km) Brightness Sun altitude
Rises 18:58:07 0° 198° (SSW) 3,218 6.5 -26.5°
Reaches altitude 10° 19:00:47 10° 211° (SSW) 2,297 5.9 -26.9°
Maximum altitude 19:04:56 25° 267° (W) 1,503 5.2 -27.7°
Drops below altitude 10° 19:09:07 10° 322° (NW) 2,310 5.9 -28.4°
Sets 19:11:49 0° 335° (NNW) 3,241 6.5 -28.9°
